Location: Ladrillo (historical)
(32.8195°N, 117.2231°W)
Time: 02:55:17
(UTC+00:00)

Cosmos 2228 - Pass Details

Date: 29 October 2020
Orbit: 590 x 617 km, 82.5° (Epoch: 26 November)

Event Time Altitude Azimuth Distance (km) Brightness Sun altitude
Rises 12:58:46 0° 341° (NNW) 2,880 6.2 -14.4°
Reaches altitude 10° 13:01:09 10° 332° (NNW) 1,975 5.3 -13.9°
Maximum altitude 13:05:02 32° 269° (W) 1,064 3.7 -13.1°
Drops below altitude 10° 13:08:55 10° 206° (SSW) 1,971 5.5 -12.3°
Sets 13:11:18 0° 197° (SSW) 2,873 6.4 -11.8°
